FW3958 Weather Reports


Display with metric or nautical units.
time (UTC)temp
F
wind
direction
speed
MPH
gust
MPH
rain 1hr
in
rain 24hr
in
rain mn
in
humidity
%
barometer
mb
20260508163105 53 233 7.0 14.0 0.00 0.00 0.00 85 1023.3
20260508161605 52 189 2.0 7.0 0.00 0.00 0.00 89 1023.1
20260508160154 52 154 2.0 5.0 0.00 0.00 0.00 89 1023.0
20260508154557 52 202 1.0 7.0 0.00 0.00 0.00 90 1023.1
20260508153054 52 184 1.0 4.0 0.00 0.00 0.00 90 1022.9
20260508151547 52 174 1.0 4.0 0.00 0.00 0.00 91 1022.7
20260508150043 51 180 1.0 4.0 0.00 0.00 0.00 91 1022.4
20260508144539 51 167 0.0 3.0 0.00 0.00 0.00 92 1022.0
20260508143037 50 166 1.0 4.0 0.00 0.00 0.00 93 1022.1
20260508141533 50 170 0.0 1.0 0.00 0.00 0.00 94 1021.9
20260508140034 49 186 0.0 2.0 0.00 0.00 0.00 96 1021.8
20260508134528 49 195 0.0 1.0 0.00 0.00 0.00 97 1021.8
20260508133028 48 195 0.0 2.0 0.00 0.00 0.00 99 1022.0
20260508131524 48 203 0.0 1.0 0.00 0.00 0.00 100 1022.1
20260508130026 47 205 0.0 3.0 0.00 0.00 0.00 100 1021.8
20260508124520 47 209 0.0 3.0 0.00 0.00 0.00 100 1021.5
20260508123019 47 268 0.0 1.0 0.00 0.00 0.00 100 1021.5
20260508121518 47 268 0.0 0.0 0.00 0.00 0.00 100 1021.6
20260508120016 47 268 0.0 0.0 0.00 0.00 0.00 100 1021.6
20260508114514 47 268 0.0 0.0 0.00 0.00 0.00 100 1021.4
20260508113017 46 268 0.0 0.0 0.00 0.00 0.00 100 1021.4
20260508111513 46 268 0.0 0.0 0.00 0.00 0.00 100 1021.3
20260508110010 45 268 0.0 0.0 0.00 0.00 0.00 100 1021.4
20260508104506 45 268 0.0 0.0 0.00 0.00 0.00 100 1021.3
20260508103014 44 268 0.0 0.0 0.00 0.00 0.00 100 1021.1
20260508101505 44 268 0.0 0.0 0.00 0.00 0.00 100 1021.0
20260508094607 44 268 0.0 0.0 0.00 0.00 0.00 100 1020.7
20260508093056 43 268 0.0 0.0 0.00 0.00 0.00 100 1020.7
20260508091559 43 268 0.0 0.0 0.00 0.00 0.00 100 1020.6
20260508090055 43 268 0.0 0.0 0.00 0.00 0.00 100 1020.5
20260508084552 43 268 0.0 0.0 0.00 0.00 0.00 100 1020.5
20260508083053 42 268 0.0 0.0 0.00 0.00 0.00 100 1020.4
20260508081604 42 268 0.0 0.0 0.00 0.00 0.00 100 1020.3
20260508080049 42 268 0.0 0.0 0.00 0.00 0.00 100 1020.3
20260508074547 42 268 0.0 0.0 0.00 0.00 0.00 100 1020.4
20260508073046 42 268 0.0 0.0 0.00 0.00 0.00 100 1020.4
20260508071545 43 268 0.0 1.0 0.00 0.00 0.00 100 1020.4
20260508070046 43 268 0.0 0.0 0.00 0.00 0.00 99 1020.4
20260508064540 43 268 0.0 0.0 0.00 0.00 0.00 99 1020.3
20260508063039 44 268 0.0 0.0 0.00 0.00 0.00 99 1020.2
20260508061539 44 268 0.0 0.0 0.00 0.00 0.00 99 1020.3
20260508060037 44 268 0.0 1.0 0.00 0.00 0.00 99 1020.5
20260508054542 44 268 0.0 0.0 0.00 0.00 0.00 98 1020.2
20260508053035 45 268 0.0 2.0 0.00 0.00 0.00 98 1020.4
20260508051533 45 301 0.0 0.0 0.00 0.00 0.00 97 1020.3
20260508050032 45 301 0.0 0.0 0.00 0.00 0.00 97 1020.4
20260508044530 46 301 0.0 1.0 0.00 0.00 0.00 96 1020.5
20260508043027 46 301 0.0 0.0 0.00 0.00 0.00 95 1020.7
20260508041525 47 301 0.0 0.0 0.00 0.00 0.00 93 1020.6
20260508040023 48 301 0.0 0.0 0.00 0.00 0.00 93 1020.5
20260508034524 49 301 0.0 1.0 0.00 0.00 0.00 92 1020.5
20260508033025 49 301 0.0 1.0 0.00 0.00 0.00 89 1020.5
20260508031620 50 301 0.0 0.0 0.00 0.00 0.00 88 1020.5
20260508030020 51 301 0.0 2.0 0.00 0.00 0.00 87 1020.4
20260508024519 52 303 0.0 3.0 0.00 0.00 0.00 85 1020.3
20260508023021 53 294 1.0 5.0 0.00 0.00 0.00 82 1020.2
20260508021517 55 285 3.0 7.0 0.00 0.00 0.00 78 1020.3
20260508020016 56 297 3.0 6.0 0.00 0.00 0.00 79 1020.4
20260508014515 56 276 2.0 6.0 0.00 0.00 0.00 78 1020.4
20260508013013 56 297 3.0 7.0 0.00 0.00 0.00 78 1020.6
20260508011513 56 298 2.0 6.0 0.00 0.00 0.00 79 1020.8
20260508010012 57 295 3.0 8.0 0.00 0.00 0.00 76 1020.8
20260508004511 57 300 3.0 9.0 0.00 0.00 0.00 77 1020.9
20260508003110 57 296 3.0 7.0 0.00 0.00 0.00 76 1021.0
20260508001509 56 294 4.0 8.0 0.00 0.00 0.00 79 1021.0
20260508000008 57 302 5.0 8.0 0.00 0.00 0.00 77 1020.9
20260507234508 58 341 3.0 8.0 0.00 0.00 0.00 77 1020.9
20260507233001 57 325 5.0 8.0 0.00 0.00 0.00 76 1021.2
20260507231606 57 299 4.0 12.0 0.00 0.00 0.00 76 1021.4
20260507230101 58 297 3.0 10.0 0.00 0.00 0.00 76 1021.4
20260507224601 57 304 4.0 12.0 0.00 0.00 0.00 74 1021.6
20260507223100 58 319 5.0 11.0 0.00 0.00 0.00 75 1021.7
20260507221554 58 292 5.0 10.0 0.00 0.00 0.00 74 1021.8
20260507220053 58 275 5.0 10.0 0.00 0.00 0.00 76 1022.0
20260507214558 58 303 7.0 11.0 0.00 0.00 0.00 75 1022.1
20260507213051 59 305 8.0 10.0 0.00 0.00 0.00 75 1022.1
20260507211551 59 300 4.0 9.0 0.00 0.00 0.00 74 1021.9
20260507210050 59 14 5.0 9.0 0.00 0.00 0.00 76 1021.9
20260507204545 58 336 4.0 8.0 0.00 0.00 0.00 73 1022.1
20260507203049 58 312 3.0 10.0 0.00 0.00 0.00 74 1022.2
20260507201542 58 9 5.0 11.0 0.00 0.00 0.00 74 1022.3
20260507200048 58 277 3.0 10.0 0.00 0.00 0.00 73 1022.2
20260507194541 58 1 4.0 10.0 0.00 0.00 0.00 73 1022.3
20260507193036 58 336 3.0 9.0 0.00 0.00 0.00 73 1022.3
20260507191535 58 280 2.0 7.0 0.00 0.00 0.00 71 1022.4
20260507190033 58 248 1.0 4.0 0.00 0.00 0.00 72 1022.6
20260507184529 57 292 1.0 3.0 0.00 0.00 0.00 71 1022.8
20260507183036 57 355 3.0 7.0 0.00 0.00 0.00 73 1022.8
20260507181524 56 321 1.0 5.0 0.00 0.00 0.00 76 1023.1
20260507180036 55 311 0.0 7.0 0.00 0.00 0.00 76 1023.1
20260507174528 55 329 2.0 6.0 0.00 0.00 0.00 75 1023.3
20260507173019 55 288 0.0 1.0 0.00 0.00 0.00 78 1023.4
20260507171517 53 274 1.0 5.0 0.00 0.00 0.00 78 1023.5
20260507170021 53 308 3.0 6.0 0.00 0.00 0.00 78 1023.6
20260507164515 53 7 2.0 4.0 0.00 0.00 0.00 78 1023.6